Regional Weather Roundup
Issued by NWS Spokane, WA

Home | Current Version | Previous Version | Text Only | Print | Product List | Glossary On
Versions: 1 2 3 4 5 6 7 8 9 10 11 12 13 14 15 16 17 18 19 20 21 22 23 24 25 26 27 28 29 30 31 32 33 34 35 36 37 38 39 40 41 42 43 44 45 46 47 48 49 50
000
NZUS01 KOTX 301205
RWROTX
EASTERN WASHINGTON/NORTHERN IDAHO ROUNDUP
NATIONAL WEATHER SERVICE, SPOKANE WA
400 AM PST FRI JAN 30 2015

Note: "fair" indicated few or no clouds below 12,000 feet with no
significant weather and/or obstructions to visibility.

...NORTHEAST WASHINGTON AND NORTHERN IDAHO PANHANDLE...

CITY           SKY/WX    TMP DP  RH WIND       PRES   REMARKS
SPOKANE INTL   FOG       29  28  96 NE3       30.35F VSB 1/4
SPOKANE DOWNTO CLOUDY    31  29  92 CALM      30.38F FOG
COEUR D ALENE  CLOUDY    30  28  93 NE10      30.34F WCI  21
DEER PARK      FOG       26  25  96 CALM      30.37F VSB 3/4
SANDPOINT      MOCLDY    28  28 100 CALM      30.38F
BONNERS FERRY  CLOUDY    28  28 100 NW3       30.39F

...SOUTHEAST WASHINGTON AND SOUTHERN IDAHO PANHANDLE...

CITY           SKY/WX    TMP DP  RH WIND       PRES   REMARKS
WALLA WALLA    CLOUDY    36  32  85 SE3       30.40F
PULLMAN/MOSCOW FOG       31  31 100 CALM      30.35F VSB 1/2
LEWISTON       CLOUDY    37  36  96 CALM      30.37F FOG
LOWELL           N/A     30  28  92 CALM      30.41F

...COLUMBIA BASIN...

CITY           SKY/WX    TMP DP  RH WIND       PRES   REMARKS
EPHRATA        CLOUDY    38  34  85 N3        30.40S
MOSES LAKE     CLOUDY    36  35  96 W3        30.41S
TRI CITIES     CLOUDY    37  37 100 W5        30.45S FOG
HERMISTON      CLOUDY    37  35  92 CALM      30.43S FOG
PENDLETON      CLOUDY    33  33 100 SE3       30.39S FOG

...EAST SLOPES CASCADES...

CITY           SKY/WX    TMP DP  RH WIND       PRES   REMARKS
THE DALLES     CLOUDY    40  35  83 NE3       30.45S
YAKIMA         CLOUDY    37  34  89 CALM      30.43S
ELLENSBURG     CLOUDY    34  31  88 NW8       30.39F FOG     WCI  27
WENATCHEE      CLOUDY    35  31  85 NW7       30.42F WCI  29
OMAK           CLOUDY    34  31  88 NW3       30.42S

...SOUTHERN BRITISH COLUMBIA...

CITY           SKY/WX    TMP DP  RH WIND       PRES   REMARKS
PENTICTON      LGT RAIN  36  32  87 SW2       30.42F

...WESTERN MONTANA...

CITY           SKY/WX    TMP DP  RH WIND       PRES   REMARKS
MISSOULA       FOG       16  14  92 W3        30.36S VSB 3/4

...NEIGHBORING CITIES...

CITY           SKY/WX    TMP DP  RH WIND       PRES   REMARKS
SEATTLE        PTCLDY    39  36  89 NE3       30.32S



USA.gov is the U.S. government's official web portal to all federal, state and local government web resources and services.